Location: Madrid
(40.4000°N, 3.6830°W)
Time: 12:59:50
(UTC+01:00)

ISS - Pass Details

Date: 18 March 2019
Orbit: 408 x 411 km, 51.6° (Epoch: 24 March)

Event Time Altitude Azimuth Distance (km) Brightness Sun altitude
Exits shadow 06:18:21 14° 213° (SSW) 1,270 -1.7 -12.9°
Drops below altitude 10° 06:19:25 10° 194° (SSW) 1,462 -1.2 -12.7°
Sets 06:22:09 0° 169° (S) 2,318 0.0 -12.2°
